FW2982 Weather Reports


Display with metric or nautical units.
time (UTC)temp
F
wind
direction
speed
MPH
gust
MPH
rain 1hr
in
rain 24hr
in
rain mn
in
humidity
%
barometer
mb
20260504043007 42 338 0.0 1.0 0.00 0.00 0.00 84 1013.5
20260504042505 42 338 0.0 0.0 0.00 0.00 0.00 83 1013.4
20260504042006 42 338 0.0 0.0 0.00 0.00 0.00 83 1013.4
20260504041504 42 338 0.0 0.0 0.00 0.00 0.00 83 1013.4
20260504041002 42 338 0.0 0.0 0.00 0.00 0.00 83 1013.5
20260504040502 42 338 0.0 0.0 0.00 0.00 0.00 83 1013.4
20260504040003 42 338 0.0 0.0 0.00 0.00 0.00 82 1013.4
20260504035503 42 338 0.0 0.0 0.00 0.00 0.00 82 1013.5
20260504035003 42 338 0.0 0.0 0.00 0.00 0.00 82 1013.4
20260504034504 42 338 0.0 0.0 0.00 0.00 0.00 82 1013.5
20260504034000 42 338 0.0 0.0 0.00 0.00 0.00 82 1013.5
20260504033500 42 338 0.0 0.0 0.00 0.00 0.00 82 1013.6
20260504033000 42 338 0.0 0.0 0.00 0.00 0.00 81 1013.5
20260504032500 42 338 0.0 0.0 0.00 0.00 0.00 81 1013.4
20260504031959 43 338 0.0 0.0 0.00 0.00 0.00 81 1013.4
20260504031455 43 338 0.0 0.0 0.00 0.00 0.00 80 1013.2
20260504030954 43 338 0.0 0.0 0.00 0.00 0.00 79 1013.3
20260504030453 43 338 0.0 0.0 0.00 0.00 0.00 79 1013.3
20260504025953 44 338 0.0 0.0 0.00 0.00 0.00 79 1013.3
20260504025454 44 338 0.0 0.0 0.00 0.00 0.00 78 1013.3
20260504024954 44 338 0.0 0.0 0.00 0.00 0.00 78 1013.2
20260504024456 44 338 0.0 0.0 0.00 0.00 0.00 78 1013.2
20260504023945 44 338 0.0 0.0 0.00 0.00 0.00 76 1013.2
20260504023445 44 338 0.0 0.0 0.00 0.00 0.00 76 1013.2
20260504022944 44 338 0.0 0.0 0.00 0.00 0.00 76 1013.1
20260504022444 45 338 0.0 0.0 0.00 0.00 0.00 75 1013.1
20260504021943 45 338 0.0 0.0 0.00 0.00 0.00 75 1013.1
20260504021727 45 338 0.0 0.0 0.00 0.00 0.00 74 1013.1
20260504020943 45 338 0.0 0.0 0.00 0.00 0.00 74 1013.0
20260504020442 46 338 0.0 0.0 0.00 0.00 0.00 74 1013.0
20260504015943 46 338 0.0 0.0 0.00 0.00 0.00 73 1012.9
20260504015726 46 338 0.0 0.0 0.00 0.00 0.00 72 1012.9
20260504015222 46 338 0.0 0.0 0.00 0.00 0.00 71 1012.8
20260504014443 47 338 0.0 0.0 0.00 0.00 0.00 70 1012.8
20260504013945 47 338 0.0 0.0 0.00 0.00 0.00 69 1012.8
20260504013443 48 338 0.0 0.0 0.00 0.00 0.00 69 1012.8
20260504012943 48 338 0.0 0.0 0.00 0.00 0.00 68 1012.7
20260504012442 48 338 0.0 0.0 0.00 0.00 0.00 67 1012.7
20260504011942 48 338 0.0 0.0 0.00 0.00 0.00 65 1012.6
20260504011441 49 338 0.0 0.0 0.00 0.00 0.00 64 1012.6
20260504010941 49 338 0.0 0.0 0.00 0.00 0.00 62 1012.6
20260504010441 50 338 0.0 0.0 0.00 0.00 0.00 62 1012.6
20260504005941 50 338 0.0 0.0 0.00 0.00 0.00 61 1012.6
20260504005438 50 338 0.0 0.0 0.00 0.00 0.00 60 1012.7
20260504004938 51 338 0.0 0.0 0.00 0.00 0.00 58 1012.6
20260504004438 51 338 0.0 0.0 0.00 0.00 0.00 57 1012.4
20260504003936 51 338 0.0 0.0 0.00 0.00 0.00 57 1012.4
20260504003433 52 338 0.0 0.0 0.00 0.00 0.00 55 1012.3
20260504003213 53 338 0.0 0.0 0.00 0.00 0.00 54 1012.3
20260504002435 53 338 0.0 0.0 0.00 0.00 0.00 54 1012.3
20260504001932 54 338 0.0 0.0 0.00 0.00 0.00 53 1012.3
20260504001432 55 338 0.0 0.0 0.00 0.00 0.00 50 1012.3
20260504000929 55 338 0.0 0.0 0.00 0.00 0.00 49 1012.3
20260504000427 56 338 0.0 0.0 0.00 0.00 0.00 46 1012.1
20260503235928 56 338 0.0 0.0 0.00 0.00 0.00 45 1012.0
20260503235425 57 338 0.0 0.0 0.00 0.00 0.00 43 1012.0
20260503234922 57 338 0.0 0.0 0.00 0.00 0.00 41 1012.0
20260503234418 58 338 0.0 0.0 0.00 0.00 0.00 40 1012.0
20260503233918 58 338 0.0 1.0 0.00 0.00 0.00 40 1011.9
20260503233418 59 338 0.0 1.0 0.00 0.00 0.00 38 1012.0
20260503232915 59 338 0.0 1.0 0.00 0.00 0.00 37 1011.9
20260503232418 60 338 0.0 5.0 0.00 0.00 0.00 36 1011.9
20260503231907 60 338 1.0 5.0 0.00 0.00 0.00 36 1011.8
20260503231407 60 262 0.0 5.0 0.00 0.00 0.00 36 1011.7
20260503230904 60 264 1.0 5.0 0.00 0.00 0.00 36 1011.6
20260503230404 60 245 1.0 4.0 0.00 0.00 0.00 34 1011.7
20260503225904 61 290 0.0 2.0 0.00 0.00 0.00 36 1011.6
20260503225404 61 290 0.0 3.0 0.00 0.00 0.00 37 1011.7
20260503224905 61 281 0.0 3.0 0.00 0.00 0.00 35 1011.7
20260503224404 61 14 2.0 4.0 0.00 0.00 0.00 35 1011.7
20260503223904 62 303 0.0 4.0 0.00 0.00 0.00 35 1011.7
20260503223402 62 258 2.0 3.0 0.00 0.00 0.00 34 1011.7
20260503222902 62 331 1.0 6.0 0.00 0.00 0.00 35 1011.8
20260503222645 62 18 1.0 6.0 0.00 0.00 0.00 34 1011.7
20260503221901 62 196 1.0 3.0 0.00 0.00 0.00 33 1011.8
20260503221402 62 172 1.0 4.0 0.00 0.00 0.00 33 1011.8
20260503221143 63 261 0.0 4.0 0.00 0.00 0.00 33 1011.8
20260503220400 63 353 1.0 4.0 0.00 0.00 0.00 33 1011.8
20260503220142 62 292 1.0 4.0 0.00 0.00 0.00 32 1011.8
20260503215400 62 262 2.0 4.0 0.00 0.00 0.00 33 1011.9
20260503214859 63 240 2.0 5.0 0.00 0.00 0.00 33 1011.8
20260503214400 63 4 1.0 5.0 0.00 0.00 0.00 32 1011.8
20260503213856 63 0 1.0 4.0 0.00 0.00 0.00 33 1011.9
20260503213638 63 212 2.0 7.0 0.00 0.00 0.00 33 1012.0
20260503212858 63 343 3.0 7.0 0.00 0.00 0.00 32 1012.0
20260503212357 63 245 2.0 4.0 0.00 0.00 0.00 32 1012.0
20260503211859 63 0 1.0 7.0 0.00 0.00 0.00 33 1011.9
20260503211356 63 255 2.0 7.0 0.00 0.00 0.00 31 1012.0
20260503211134 63 223 2.0 6.0 0.00 0.00 0.00 31 1012.0
20260503210356 63 220 1.0 11.0 0.00 0.00 0.00 33 1012.0
20260503205855 63 326 3.0 11.0 0.00 0.00 0.00 31 1012.0
20260503205633 63 68 2.0 6.0 0.00 0.00 0.00 31 1012.0
20260503204854 63 220 3.0 6.0 0.00 0.00 0.00 32 1012.1
20260503204351 63 264 2.0 6.0 0.00 0.00 0.00 31 1012.3
20260503203848 63 183 2.0 6.0 0.00 0.00 0.00 34 1012.3
20260503203350 63 269 2.0 5.0 0.00 0.00 0.00 33 1012.0
20260503202847 63 243 3.0 6.0 0.00 0.00 0.00 31 1012.0
20260503202347 63 303 2.0 6.0 0.00 0.00 0.00 34 1012.1
20260503201847 63 310 3.0 9.0 0.00 0.00 0.00 34 1012.3
20260503201645 63 283 2.0 6.0 0.00 0.00 0.00 35 1012.5
20260503201641 63 295 2.0 9.0 0.00 0.00 0.00 34 1012.5
20260503200341 63 251 2.0 4.0 0.00 0.00 0.00 37 1012.6
20260503195840 64 69 1.0 10.0 0.00 0.00 0.00 34 1012.7
20260503195339 64 4 3.0 10.0 0.00 0.00 0.00 34 1012.8
20260503195122 64 18 2.0 6.0 0.00 0.00 0.00 33 1012.9
20260503194333 64 37 3.0 7.0 0.00 0.00 0.00 36 1012.9
20260503193834 64 265 2.0 9.0 0.00 0.00 0.00 35 1013.0
20260503193334 64 102 2.0 9.0 0.00 0.00 0.00 35 1013.0
20260503192831 64 52 2.0 7.0 0.00 0.00 0.00 36 1013.0
20260503192332 64 290 2.0 9.0 0.00 0.00 0.00 33 1013.2
20260503191832 64 307 2.0 9.0 0.00 0.00 0.00 34 1013.4
20260503191331 65 268 2.0 9.0 0.00 0.00 0.00 35 1013.2
20260503190832 65 0 2.0 10.0 0.00 0.00 0.00 35 1013.3
20260503190331 64 292 2.0 13.0 0.00 0.00 0.00 37 1013.4
20260503185831 63 230 4.0 13.0 0.00 0.00 0.00 34 1013.3
20260503185331 63 0 4.0 10.0 0.00 0.00 0.00 35 1013.5
20260503184831 63 269 2.0 12.0 0.00 0.00 0.00 35 1013.5
20260503184332 63 355 4.0 12.0 0.00 0.00 0.00 37 1013.6
20260503183831 62 17 2.0 9.0 0.00 0.00 0.00 35 1013.5
20260503183611 63 219 2.0 5.0 0.00 0.00 0.00 36 1013.8
20260503182830 63 261 2.0 4.0 0.00 0.00 0.00 36 1013.7
20260503182331 64 250 2.0 10.0 0.00 0.00 0.00 35 1013.8
20260503181831 63 269 2.0 11.0 0.00 0.00 0.00 38 1013.8
20260503181330 62 329 3.0 11.0 0.00 0.00 0.00 35 1013.8
20260503181112 62 140 3.0 11.0 0.00 0.00 0.00 35 1013.9
20260503180330 62 324 2.0 11.0 0.00 0.00 0.00 36 1013.9
20260503175829 63 302 1.0 9.0 0.00 0.00 0.00 37 1013.9
20260503175329 63 333 1.0 9.0 0.00 0.00 0.00 36 1014.0
20260503175112 62 257 3.0 6.0 0.00 0.00 0.00 37 1014.1
20260503174329 63 214 1.0 9.0 0.00 0.00 0.00 36 1014.1
20260503173830 63 0 3.0 9.0 0.00 0.00 0.00 35 1014.0
20260503173328 63 266 4.0 7.0 0.00 0.00 0.00 36 1014.2
20260503173108 62 233 2.0 12.0 0.00 0.00 0.00 38 1014.2
20260503172611 62 276 2.0 12.0 0.00 0.00 0.00 36 1014.2
20260503171829 62 276 1.0 4.0 0.00 0.00 0.00 37 1014.1
20260503171329 61 192 3.0 5.0 0.00 0.00 0.00 38 1014.3
20260503170830 62 266 2.0 7.0 0.00 0.00 0.00 36 1014.3
20260503170328 64 355 2.0 7.0 0.00 0.00 0.00 38 1014.2
20260503150825 59 300 2.0 7.0 0.00 0.00 0.00 41 1015.1
20260503150325 59 0 3.0 7.0 0.00 0.00 0.00 41 1015.1
20260503131323 54 312 1.0 11.0 0.00 0.00 0.00 48 1015.3
20260503130825 54 63 3.0 10.0 0.00 0.00 0.00 48 1015.3
20260503130603 54 330 2.0 6.0 0.00 0.00 0.00 49 1015.5
20260503110806 41 296 0.0 2.0 0.00 0.00 0.00 79 1014.2
20260503110307 40 296 0.0 2.0 0.00 0.00 0.00 80 1014.3
20260503090242 40 295 1.0 3.0 0.00 0.00 0.00 78 1012.9
20260503081511 40 334 0.0 2.0 0.00 0.00 0.00 79 1012.5
20260503080732 40 220 0.0 2.0 0.00 0.00 0.00 78 1012.5
20260503080512 41 220 0.0 2.0 0.00 0.00 0.00 78 1012.6
20260503072724 41 282 0.0 2.0 0.00 0.00 0.00 75 1012.1
20260503072500 41 282 0.0 2.0 0.00 0.00 0.00 74 1012.1
20260503071722 42 347 0.0 2.0 0.00 0.00 0.00 73 1012.1
20260503071222 42 272 0.0 2.0 0.00 0.00 0.00 72 1012.0
20260503070721 42 275 0.0 2.0 0.00 0.00 0.00 71 1012.0
20260503070221 43 275 1.0 2.0 0.00 0.00 0.00 70 1012.0
20260503060213 44 312 0.0 0.0 0.00 0.00 0.00 68 1011.7
20260503054951 45 324 1.0 6.0 0.00 0.00 0.00 68 1011.7
20260503054455 45 351 2.0 6.0 0.00 0.00 0.00 69 1011.6
20260503053951 45 279 1.0 3.0 0.00 0.00 0.00 68 1011.6
20260503053213 45 338 1.0 3.0 0.00 0.00 0.00 69 1011.7
20260503052714 45 268 0.0 2.0 0.00 0.00 0.00 69 1011.7
20260503052452 45 266 1.0 2.0 0.00 0.00 0.00 68 1011.8
20260503051713 45 262 0.0 1.0 0.00 0.00 0.00 68 1011.8
20260503051212 45 262 0.0 1.0 0.00 0.00 0.00 67 1011.8
20260503050712 46 262 0.0 2.0 0.00 0.00 0.00 67 1011.9
20260503050212 46 262 0.0 7.0 0.00 0.00 0.00 66 1011.8
20260503045712 46 262 0.0 7.0 0.00 0.00 0.00 66 1011.8
20260503045211 46 296 0.0 3.0 0.00 0.00 0.00 66 1011.8
20260503044712 46 298 1.0 3.0 0.00 0.00 0.00 66 1011.9
20260503044211 46 59 0.0 2.0 0.00 0.00 0.00 65 1012.0
20260503043712 46 59 0.0 4.0 0.00 0.00 0.00 65 1011.9